Weather History for Covington, KY

Change the Weather History Date:

Friday, March 22, 2013

  Actual Average Record
Temperature  
Mean Temperature 31 °F 46 °F  
Max Temperature 45 °F 56 °F 85 °F (1907)
Min Temperature 17 °F 36 °F 10 °F (1885)
Degree Days  
Heating Degree Days 34 19  
Month to date heating degree days 632 507  
Since 1 July heating degree days 4342 4334  
Cooling Degree Days 0 0  
Month to date cooling degree days 0 0  
Year to date cooling degree days 0 0  
Moisture  
Dew Point 14 °F    
Average Humidity 60    
Maximum Humidity 92    
Minimum Humidity 27    
Precipitation  
Precipitation 0.00 in 0.15 in 2.03 in (1904)
Month to date precipitation 3.30 2.70  
Year to date precipitation 8.90 8.51  
Snow  
Snow 0.00 in 0.10 in 9.80 in (1968)
Month to date snowfall 5.5 2.5  
Since 1 July snowfall 21.9 21.1  
Snow Depth 0.00 in    
Sea Level Pressure  
Sea Level Pressure 30.05 in    
Wind  
Wind Speed 3 mph (WSW)    
Max Wind Speed 9 mph    
Max Gust Speed 14 mph    
Visibility 10 miles    
Events      
T = Trace of Precipitation, MM = Missing Value Source: NWS Daily Summary

Daily Weather History Graph

Daily Weather History Graph

Search for Another Location

Airport:

Trip Planner

Search our weather history database for the weather conditions in past years. The results will help you decide how hot, cold, wet, or windy it might be!

Date:

Astronomy

Mar. 22, 2013 Rise Set
Actual Time 7:38 AM EDT 7:52 PM EDT
Civil Twilight 7:11 AM EDT 8:19 PM EDT
Nautical Twilight 6:40 AM EDT 8:50 PM EDT
Astronomical Twilight 6:08 AM EDT 9:22 PM EDT
Moon 3:21 PM EDT (3/22) 4:36 AM EDT (3/22)
Length of Visible Light 13h 07m
Length of Day
12h 14m
Waxing Gibbous, 77% of the Moon is Illuminated
Mar 22
Waxing Gibbous
Mar 27
Full
Apr 3
Last Quarter
Apr 10
New
Apr 18
First Quarter

Hourly Weather History & Observations

Time (EDT) Temp. Windchill Dew Point Humidity Pressure Visibility Wind Dir Wind Speed Gust Speed Precip Events Conditions
12:52 AM 23.0 °F 18.4 °F 12.0 °F 63% 30.05 in 10.0 mi SSW 3.5 mph - N/A   Clear
1:52 AM 21.0 °F 14.6 °F 12.9 °F 71% 30.04 in 10.0 mi SSW 4.6 mph - N/A   Clear
2:52 AM 21.9 °F 15.7 °F 14.0 °F 72% 30.04 in 10.0 mi SW 4.6 mph - N/A   Clear
3:52 AM 19.9 °F - 14.0 °F 78% 30.04 in 10.0 mi Calm Calm - N/A   Clear
4:52 AM 21.0 °F 16.2 °F 14.0 °F 74% 30.04 in 10.0 mi SW 3.5 mph - N/A   Clear
5:52 AM 18.0 °F 12.7 °F 14.0 °F 84% 30.05 in 10.0 mi SW 3.5 mph - N/A   Clear
6:52 AM 17.1 °F 11.7 °F 15.1 °F 92% 30.07 in 8.0 mi SSW 3.5 mph - N/A   Clear
7:52 AM 17.1 °F - 14.0 °F 88% 30.08 in 8.0 mi Calm Calm - N/A   Clear
8:52 AM 23.0 °F - 19.0 °F 85% 30.10 in 8.0 mi Calm Calm - N/A   Clear
9:52 AM 30.0 °F - 16.0 °F 56% 30.09 in 10.0 mi Calm Calm - N/A   Partly Cloudy
10:52 AM 33.1 °F 26.9 °F 14.0 °F 46% 30.09 in 10.0 mi WNW 6.9 mph - N/A   Partly Cloudy
11:52 AM 34.0 °F 31.0 °F 12.9 °F 42% 30.09 in 10.0 mi Variable 3.5 mph - N/A   Mostly Cloudy
12:52 PM 37.0 °F - 14.0 °F 39% 30.08 in 10.0 mi Calm Calm - N/A   Scattered Clouds
1:52 PM 39.0 °F 34.0 °F 14.0 °F 36% 30.06 in 10.0 mi NW 6.9 mph - N/A   Partly Cloudy
2:52 PM 42.1 °F 37.7 °F 14.0 °F 32% 30.03 in 10.0 mi WSW 6.9 mph - N/A   Mostly Cloudy
3:52 PM 43.0 °F 38.8 °F 12.9 °F 30% 30.02 in 10.0 mi West 6.9 mph - N/A   Mostly Cloudy
4:52 PM 44.1 °F - 12.0 °F 27% 30.00 in 10.0 mi Calm Calm - N/A   Mostly Cloudy
5:52 PM 43.0 °F 41.3 °F 12.0 °F 28% 30.00 in 10.0 mi SSW 3.5 mph - N/A   Scattered Clouds
6:52 PM 44.1 °F - 12.0 °F 27% 30.01 in 10.0 mi Calm Calm - N/A   Scattered Clouds
7:52 PM 41.0 °F 39.0 °F 14.0 °F 33% 30.02 in 10.0 mi SW 3.5 mph - N/A   Partly Cloudy
8:52 PM 37.9 °F - 12.9 °F 36% 30.03 in 10.0 mi Calm Calm - N/A   Partly Cloudy
9:52 PM 37.0 °F 33.3 °F 16.0 °F 42% 30.03 in 10.0 mi North 4.6 mph - N/A   Partly Cloudy
10:52 PM 36.0 °F 32.1 °F 16.0 °F 44% 30.04 in 10.0 mi North 4.6 mph - N/A   Partly Cloudy
11:52 PM 34.0 °F - 19.0 °F 54% 30.04 in 10.0 mi Calm Calm - N/A   Mostly Cloudy